Weather History for Upington, South Africa

Change the Weather History Date:

Wednesday, February 27, 2013

  Actual Average Record
Temperature  
Mean Temperature 87 °F -  
Max Temperature 106 °F 89 °F 106 °F (2013)
Min Temperature 68 °F 62 °F 57 °F (2008)
Cooling Degree Days 22    
Growing Degree Days 37 (Base 50)    
Moisture  
Dew Point 47 °F    
Average Humidity 26    
Maximum Humidity 53    
Minimum Humidity 5    
Precipitation  
Precipitation 0.02 in 0.05 in - ()
Sea Level Pressure  
Sea Level Pressure 29.97 in    
Wind  
Wind Speed 9 mph ()    
Max Wind Speed 28 mph    
Max Gust Speed 48 mph    
Visibility 7.6 miles    
Events Rain , Thunderstorm    
Averages and records for this station are not official NWS values.
T = Trace of Precipitation, MM = Missing Value Source: Averaged Metar Reports

Daily Weather History Graph

Daily Weather History Graph

Search for Another Location

Airport:

Trip Planner

Search our weather history database for the weather conditions in past years. The results will help you decide how hot, cold, wet, or windy it might be!

Date:

Astronomy

Feb. 27, 2013 Rise Set
Actual Time 6:25 AM SAST 7:09 PM SAST
Civil Twilight 6:01 AM SAST 7:33 PM SAST
Nautical Twilight 5:33 AM SAST 8:01 PM SAST
Astronomical Twilight 5:04 AM SAST 8:29 PM SAST
Moon 7:59 PM SAST (2/27) 7:48 AM SAST (2/27)
Length of Visible Light 13h 31m
Length of Day
12h 43m
Full, 97% of the Moon is Illuminated
Feb 27
Full
Mar 4
Last Quarter
Mar 11
New
Mar 19
First Quarter
Mar 27
Full

Hourly Weather History & Observations

Time (SAST) Temp. Dew Point Humidity Pressure Visibility Wind Dir Wind Speed Gust Speed Precip Events Conditions
12:00 AM 82.4 °F 46.4 °F 28% 30.01 in - NNE 10.4 mph - N/A   Unknown
1:00 AM 77.0 °F 48.2 °F 36% 30.01 in - WNW 3.5 mph - N/A   Unknown
2:00 AM 80 °F 50 °F 24%  in - NNW 10.4 mph - -  
2:00 AM 78.8 °F 48.2 °F 34% 30.01 in - NNW 9.2 mph - N/A   Unknown
3:00 AM 78.8 °F 50.0 °F 36% 30.04 in - NE 4.6 mph - N/A   Unknown
4:00 AM 77.0 °F 51.8 °F 41% 30.04 in - NNW 9.2 mph - N/A   Unknown
5:00 AM 75 °F 54 °F 38%  in 25 mi NNW 8.1 mph - -   Scattered Clouds
5:00 AM 73.4 °F 53.6 °F 50% 30.04 in - NNW 8.1 mph - N/A   Clear
6:00 AM 71.6 °F 53.6 °F 53% 30.04 in - NE 5.8 mph - N/A   Clear
7:00 AM 69.8 °F 51.8 °F 53% 30.04 in - ENE 3.5 mph - N/A   Clear
7:10 AM 73.4 °F 53.6 °F 50% 30.04 in - East 2.3 mph - N/A   Clear
7:32 AM 77.0 °F 53.6 °F 44% 30.04 in - ENE 3.5 mph - N/A   Clear
8:00 AM 79 °F 53 °F 30%  in 25 mi NE 5.8 mph - -   Scattered Clouds
8:00 AM 78.8 °F 51.8 °F 39% 30.04 in - NE 5.8 mph - N/A   Clear
8:45 AM 82.4 °F 48.2 °F 30% 30.04 in - NNW 6.9 mph - N/A   Clear
9:00 AM 84.2 °F 50.0 °F 30% 30.04 in - NNW 9.2 mph - N/A   Clear
9:45 AM 87.8 °F 48.2 °F 25% 30.01 in - NNW 8.1 mph - N/A   Clear
10:00 AM 89.6 °F 48.2 °F 24% 30.01 in - North 5.8 mph - N/A   Clear
10:50 AM 95.0 °F 44.6 °F 18% 30.01 in - WNW 10.4 mph - N/A   Clear
11:00 AM 96 °F 47 °F 11%  in 25 mi WNW 10.4 mph - -   Scattered Clouds
11:00 AM 95.0 °F 46.4 °F 19% 30.01 in - WNW 10.4 mph - N/A   Clear
12:00 PM 98.6 °F 46.4 °F 17% 29.98 in - West 12.7 mph - N/A   Clear
1:00 PM 100.4 °F 41.0 °F 13% 29.95 in - West 10.4 mph - N/A   Clear
2:00 PM 102 °F 41 °F 6%  in 25 mi WNW 6.9 mph - -   Scattered Clouds
2:00 PM 100.4 °F 39.2 °F 12% 29.89 in 6.2 mi WNW 6.9 mph - N/A   Partly Cloudy
3:00 PM 102.2 °F 39.2 °F 11% 29.86 in 6.2 mi NNW 9.2 mph 24.2 mph N/A   Partly Cloudy
4:00 PM 102.2 °F 39.2 °F 11% 29.86 in 6.2 mi NW 10.4 mph - N/A   Partly Cloudy
5:00 PM 103 °F 37 °F 5%  in 25 mi NNW 12.7 mph - -   Scattered Clouds
5:00 PM 102.2 °F 35.6 °F 10% 29.83 in 6.2 mi NNW 12.7 mph - N/A   Partly Cloudy
8:00 PM 90 °F 45 °F 12%  in 12 mi WSW 24.2 mph - -   Scattered Clouds
8:00 PM 89.6 °F 44.6 °F 21% 29.83 in 6.2 mi WSW 23.0 mph - N/A   Partly Cloudy
9:00 PM 89.6 °F 41.0 °F 18% 29.86 in 6.2 mi West 20.7 mph - N/A   Partly Cloudy
10:00 PM 91.4 °F 41.0 °F 17% 29.86 in 6.2 mi WSW 23.0 mph 34.5 mph N/A Thunderstorm Thunderstorm
10:45 PM 89.6 °F 44.6 °F 21% 29.89 in 6.2 mi WSW 17.3 mph - N/A Rain , Thunderstorm Thunderstorms and Rain
11:00 PM 83 °F 51 °F 23%  in 16 mi West 27.6 mph - - Rain , Thunderstorm Thunderstorms and Rain
11:00 PM 82.4 °F 50.0 °F 32% 29.89 in 6.2 mi West 27.6 mph 48.3 mph N/A Rain , Thunderstorm Thunderstorms and Rain